Wetbulb
51.00 50.23 49.68 48.73 49.16 48.68 48.42 48.75 48.50 47.71 47.58 48.47 48.98 48.27 48.92 49.16 49.05 48.84 51.88 54.97 49.67 47.41 50.26 51.28 51.08 50.46 52.14 52.03 49.88 53.15 53.11 53.00 51.95 47.70 47.31 48.12 47.87 50.16 50.39 53.62 52.40 50.80 49.29 47.93 49.91 47.01 44.30 57.77 56.19 54.70 64.71 66.65 66.69 66.14
51.12 50.69 49.94 48.81 48.88 48.55 48.73 48.77 48.31 47.67 47.58 47.88 48.85 48.36 48.24 48.38 48.72 48.83 50.80 54.92 54.57 48.52 48.32 51.96 51.59 52.18 52.80 52.98 51.49 53.75 52.90 53.31 54.63 50.05 50.78 49.98 48.38 50.78 53.62 47.04 56.20 50.27 54.13 51.75 52.83 51.78 63.00 66.60 65.45 66.85 67.44 67.14 66.61 66.22
51.21 51.08 50.01 48.91 48.53 48.43 48.23 48.24 47.91 47.92 47.98 47.58 47.68 48.22 48.00 48.14 48.39 48.03 48.98 52.97 53.08 49.75 50.50 51.12 50.08 53.55 52.63 52.33 54.13 49.53 53.76 56.80 56.73 59.02 54.81 53.95 50.60 52.36 49.29 50.46 53.51 55.93 59.28 55.27 56.13 59.69 61.81 63.75 65.63 66.77 67.29 66.84 67.21 67.31
51.01 50.75 50.02 49.13 48.47 48.23 48.03 48.22 48.29 48.37 48.05 47.77 47.51 47.66 48.08 48.24 48.36 48.42 48.48 52.76 52.50 50.65 46.04 50.08 57.01 53.87 56.35 55.79 53.49 52.51 54.00 57.02 58.01 57.22 53.36 52.72 51.86 56.15 52.96 53.88 52.86 55.48 58.28 56.91 57.66 60.92 61.99 63.48 65.23 66.05 66.27 66.68 66.45 67.26
50.66 50.38 49.82 49.07 48.27 48.14 48.14 48.30 48.62 48.38 48.07 47.68 47.41 47.69 48.00 48.15 48.51 48.66 51.02 53.75 55.40 49.67 46.66 49.44 54.72 55.35 55.69 54.96 53.96 52.35 52.89 54.07 53.52 50.74 49.72 49.16 52.31 52.63 54.51 54.35 52.51 57.89 55.92 53.99 55.73 60.65 61.72 61.34 64.76 65.69 65.50 65.43 66.14 65.83
49.93 49.21 48.71 48.81 48.39 48.03 47.77 47.90 48.34 47.81 47.71 47.42 47.34 47.47 47.73 48.15 48.27 49.18 50.59 55.11 55.92 54.67 48.17 46.97 55.40 54.71 55.38 54.95 53.24 51.87 52.48 53.50 52.57 51.46 51.27 52.60 55.83 54.51 49.94 49.57 56.42 58.77 60.44 58.18 57.47 59.47 63.10 64.98 65.14 65.64 65.38 65.74 66.01 66.41
49.50 48.67 48.34 48.27 48.24 47.76 47.67 48.08 47.57 47.54 47.21 47.20 47.32 47.52 47.81 48.03 47.72 47.76 46.48 51.15 49.71 53.87 48.98 47.68 48.64 53.79 55.92 54.52 52.82 51.59 53.58 52.45 51.78 50.72 49.99 51.43 52.97 53.29 49.70 47.41 55.74 58.20 59.11 59.64 61.36 61.42 61.14 61.95 61.99 64.19 64.50 65.37 64.17 66.28
49.07 48.83 48.25 48.06 48.15 47.85 47.89 47.88 47.60 47.30 46.82 46.90 47.17 48.01 48.28 48.06 48.67 48.28 52.84 50.28 50.38 50.77 51.18 46.64 48.26 50.97 55.83 51.20 49.56 54.14 51.74 52.47 52.00 50.68 51.36 49.89 51.89 52.49 48.05 52.60 54.27 56.87 57.80 57.30 59.18 60.89 60.45 62.05 62.53 62.28 63.89 64.26 63.73 63.78
48.48 48.77 48.45 47.74 47.77 47.91 47.94 48.06 47.54 47.15 46.83 46.84 47.39 47.23 48.92 49.58 49.39 52.35 52.53 51.54 54.12 50.68 46.58 47.68 45.35 44.18 54.58 52.21 53.76 52.93 53.03 47.88 52.95 49.43 49.28 50.73 48.94 47.18 51.28 53.23 53.55 56.30 55.93 56.14 57.72 58.74 59.36 59.51 61.04 61.60 61.16 62.15 61.77 62.73
47.98 48.29 48.42 48.16 47.65 48.20 47.96 48.19 47.54 47.30 47.16 46.78 46.32 47.57 45.49 50.39 53.38 52.18 50.66 49.12 48.31 49.77 49.98 46.41 50.91 45.65 52.66 51.43 49.94 49.96 51.31 47.80 46.66 49.20 52.21 48.67 47.46 53.36 53.37 54.89 56.56 57.23 56.48 55.99 54.21 54.44 56.74 58.08 59.56 59.93 57.03 58.62 62.47 63.67
48.59 48.01 48.42 47.81 47.96 48.13 48.05 48.07 47.59 46.99 46.64 46.81 46.76 47.29 52.68 52.22 51.68 49.16 44.73 43.40 46.62 44.85 48.45 47.97 49.02 48.91 53.48 48.04 47.59 52.23 49.67 49.36 44.48 47.95 47.18 47.15 46.04 51.48 56.06 56.61 57.41 56.78 56.22 56.22 56.73 57.10 57.60 57.60 58.67 59.08 57.56 58.44 62.37 63.32
48.93 48.48 48.34 48.21 48.41 48.05 48.36 47.99 47.39 45.46 49.19 46.44 45.16 50.47 51.98 48.19 46.78 42.79 41.98 45.66 45.11 43.85 49.53 47.77 49.41 51.00 52.50 54.88 51.38 48.54 47.29 48.19 43.35 51.95 46.43 44.19 50.98 54.62 55.47 55.13 56.29 56.57 56.50 56.04 57.18 56.61 57.13 57.77 58.36 59.76 59.08 58.57 61.10 62.95
48.93 48.43 48.27 48.52 48.43 48.32 48.26 47.79 46.65 46.10 46.82 50.73 48.21 45.73 45.10 45.89 36.41 38.10 38.09 42.05 43.76 49.27 51.22 49.89 49.13 50.93 52.50 53.11 50.60 49.00 44.58 44.51 50.81 46.83 44.68 49.44 53.02 54.32 54.90 54.74 54.71 55.89 55.85 55.79 55.52 56.89 57.63 57.44 58.46 58.63 58.82 60.09 60.54 62.76
48.43 48.16 48.16 48.37 48.63 48.23 48.08 47.00 45.99 46.37 46.88 45.78 43.04 34.77 40.76 39.84 42.62 44.17 44.33 46.52 49.42 50.91 49.69 50.23 49.09 48.72 49.88 49.81 49.36 44.55 48.04 49.01 43.72 40.91 43.21 50.61 52.30 52.70 53.70 54.04 53.39 53.82 54.88 55.20 55.17 55.24 55.81 56.92 57.22 58.85 59.43 61.19 60.55 60.81
47.96 48.21 48.31 48.30 48.28 48.26 47.29 46.10 45.67 47.55 46.40 43.70 44.18 35.80 40.15 46.26 48.75 48.61 50.32 49.25 50.60 51.59 51.03 49.08 49.24 49.21 49.08 46.16 47.36 46.35 43.88 41.63 44.10 43.61 48.64 51.27 53.02 53.19 53.10 53.22 53.42 52.82 53.49 53.49 54.57 54.64 55.71 56.60 57.33 57.72 59.72 59.05 61.91 61.82
48.17 47.94 47.18 48.56 48.18 47.35 46.54 45.79 46.76 49.05 48.10 45.23 45.17 43.32 46.68 45.76 46.39 47.64 48.06 50.01 52.14 51.18 51.49 50.74 47.32 45.30 44.61 45.45 43.55 42.93 42.30 41.22 46.18 49.85 50.14 52.41 53.05 53.54 52.85 52.62 52.41 53.25 54.01 53.56 53.11 54.48 55.32 56.12 57.31 59.71 59.95 59.06 60.34 60.52
47.68 46.21 48.40 48.36 47.62 46.79 45.97 46.69 47.47 45.00 45.17 43.50 43.34 47.56 48.67 47.85 48.11 49.53 51.62 50.25 53.08 51.10 47.65 47.95 42.24 42.22 47.13 43.54 42.27 46.48 45.05 46.39 47.79 49.15 51.91 52.53 51.75 51.79 51.86 50.77 50.95 53.09 54.21 54.69 55.23 56.15 56.35 57.32 59.31 59.50 56.10 58.28 61.42 60.50
47.23 48.68 48.36 47.90 47.30 45.78 47.28 46.69 46.25 44.62 41.86 45.30 43.50 46.23 48.86 49.95 50.75 51.31 50.48 51.80 50.59 49.59 49.67 45.99 47.62 43.52 42.10 41.00 42.81 47.04 48.06 50.08 51.13 51.00 51.01 51.41 51.53 52.00 51.08 50.43 51.38 53.60 54.76 55.50 55.61 56.11 56.59 57.77 55.95 55.91 57.37 58.30 58.60 59.65
48.87 48.56 48.02 47.63 47.36 47.13 44.85 46.24 47.74 42.43 44.31 46.31 48.12 48.56 49.26 50.39 51.81 51.07 50.27 51.30 52.63 51.81 48.86 47.38 43.77 42.22 44.02 47.98 47.95 49.21 49.39 49.90 49.30 50.31 50.80 51.16 51.17 50.50 50.79 51.85 53.20 53.77 54.17 54.51 55.35 55.24 56.11 56.07 55.25 54.99 54.85 54.82 53.40 54.06
47.87 47.64 47.54 46.91 45.95 46.58 44.24 45.87 50.50 46.07 44.70 48.51 49.06 47.16 48.99 48.95 50.64 48.83 49.67 49.71 48.95 48.03 45.09 43.64 44.40 48.87 48.66 49.71 50.93 50.77 50.40 51.29 49.99 47.84 49.07 50.28 51.05 51.65 51.87 52.83 53.57 54.39 54.30 54.75 55.07 52.05 54.33 54.01 55.45 55.47 54.32 53.29 52.84 51.64
47.12 46.55 46.65 46.71 48.98 48.14 46.18 46.30 45.97 46.18 46.54 47.12 49.75 50.09 48.35 48.89 47.82 47.27 46.87 49.17 46.37 45.99 44.07 47.21 48.75 50.07 51.91 51.48 52.26 52.16 50.71 50.23 49.03 49.17 48.36 48.67 51.04 52.07 51.72 53.00 54.14 54.99 52.78 52.05 52.54 52.60 52.37 53.51 54.85 54.85 54.25 53.93 55.12 54.58
48.40 46.67 49.86 48.53 46.91 46.81 46.52 49.16 48.41 48.96 47.10 47.84 46.67 48.37 46.09 45.84 45.11 43.84 46.58 44.68 44.95 46.68 48.70 48.21 49.17 49.67 49.50 49.41 48.59 49.96 51.22 51.44 51.37 50.46 48.40 49.53 50.40 50.56 50.66 51.38 51.70 51.50 52.12 52.62 52.01 52.03 51.47 52.85 54.15 54.58 54.34 53.43 53.12 54.21
45.28 48.81 48.64 47.72 43.57 42.01 40.19 50.29 43.69 45.78 42.54 43.46 45.95 42.89 43.61 43.75 42.49 44.69 40.74 42.21 42.97 46.91 46.87 46.70 47.11 48.17 47.44 49.16 51.18 51.23 51.92 51.03 50.46 51.75 52.65 52.33 53.17 54.09 54.34 54.73 53.22 51.55 50.60 51.15 52.41 52.40 52.12 49.00 51.38 53.25 52.72 52.13 51.69 51.35
42.67 46.57 43.59 43.22 43.13 38.70 46.71 43.56 46.82 43.80 44.41 41.92 41.62 38.21 39.54 40.17 41.92 39.24 36.91 40.47 45.03 47.17 47.20 48.03 48.95 49.42 49.98 50.24 49.60 50.33 50.98 52.15 51.71 52.24 52.88 54.58 53.66 53.15 55.14 55.46 54.21 53.62 54.07 54.03 52.96 52.38 51.78 51.62 48.90 52.57 52.98 53.19 53.37 53.09
39.35 39.44 40.71 33.68 43.80 40.99 39.54 39.47 40.38 40.02 37.35 39.32 38.19 38.25 39.11 40.78 36.51 36.08 36.67 41.67 44.07 45.61 49.03 50.09 49.91 49.88 48.61 49.26 50.33 51.00 53.31 53.11 51.21 50.96 52.85 53.70 54.11 55.41 54.15 54.62 55.20 55.23 55.50 53.66 53.33 53.94 54.90 55.57 55.91 55.09 54.39 52.55 51.31 51.05
37.03 40.08 39.06 40.12 41.33 39.61 40.45 37.23 37.50 37.37 38.81 38.08 39.05 41.77 41.94 39.70 36.07 34.87 40.49 43.58 44.88 46.71 48.99 49.28 49.02 48.97 49.60 51.24 50.08 51.12 52.47 54.49 54.44 52.50 53.06 54.51 54.22 54.07 54.12 52.57 51.65 53.97 56.76 56.83 56.05 54.73 54.94 55.13 53.33 52.70 51.99 50.54 47.40 52.03
35.99 39.23 43.09 45.68 43.65 41.84 39.37 39.57 40.38 38.92 38.92 38.52 40.82 41.37 40.90 35.83 35.91 40.67 45.79 47.85 47.98 50.35 51.40 52.57 52.59 51.49 51.27 52.38 53.16 53.67 54.96 56.48 56.15 54.66 56.66 55.25 56.34 56.09 54.61 52.83 52.18 54.32 56.48 57.16 56.97 56.57 55.13 54.54 53.04 52.25 52.14 53.10 53.32 53.35
38.57 38.68 35.60 39.72 39.08 39.94 39.25 40.57 40.11 39.94 41.41 44.35 44.16 41.42 39.23 38.59 40.00 46.03 48.50 50.49 51.62 52.80 53.02 53.44 54.23 53.33 52.45 52.88 55.00 56.07 56.48 56.45 57.52 56.85 55.51 55.12 55.49 55.27 56.07 54.95 54.21 44.81 54.02 52.65 54.44 54.39 54.02 53.75 53.53 53.39 53.37 52.91 53.24 54.01
38.30 41.83 41.59 39.85 40.51 41.40 41.96 42.74 44.23 46.25 48.33 47.17 44.13 42.67 42.74 45.95 47.92 49.31 51.06 52.09 52.95 52.39 51.29 52.18 54.04 56.04 56.31 56.82 56.60 56.62 56.37 54.87 52.89 50.61 49.80 49.74 50.56 51.74 54.11 54.05 54.06 54.59 55.02 54.18 39.80 46.91 51.81 52.35 53.10 54.32 54.52 54.02 53.69 54.58
43.66 43.56 41.40 43.45 43.19 42.91 45.98 48.49 47.12 49.55 50.80 50.05 49.60 49.21 49.14 49.82 51.92 54.19 53.12 52.25 51.99 52.68 54.43 55.12 55.09 54.81 53.89 52.63 52.71 54.15 55.04 54.48 53.79 52.50 50.82 50.81 52.00 54.10 54.70 54.84 55.01 55.28 55.25 54.66 53.75 53.12 43.68 50.81 49.04 53.68 53.06 53.44 53.55 53.25
48.73 48.26 46.26 45.82 44.82 46.91 48.29 49.83 50.56 50.46 49.80 48.56 49.23 47.61 47.60 49.85 52.48 54.44 54.50 55.06 54.90 54.86 54.29 53.66 53.31 52.74 51.96 51.79 52.03 51.89 51.81 54.70 55.35 55.37 55.20 54.84 55.25 55.49 55.45 56.09 56.21 56.27 56.04 55.58 55.24 55.31 54.11 53.50 54.33 53.50 53.02 52.50 52.07 50.08
47.20 46.57 45.79 44.68 46.05 49.44 50.40 48.68 47.92 47.41 47.79 47.90 48.10 49.76 49.86 49.01 47.46 50.89 53.86 54.07 53.02 52.04 48.23 51.89 52.96 53.27 55.05 55.22 55.32 54.90 49.82 55.18 55.88 55.75 55.91 56.19 56.16 56.76 56.59 56.70 56.36 56.12 55.82 55.58 55.38 54.85 53.90 53.03 53.17 52.58 52.20 51.12 50.96 49.97
47.43 48.22 48.11 47.69 47.24 46.67 48.91 48.86 48.14 47.43 48.80 47.91 48.69 49.78 50.01 49.93 47.16 51.17 55.17 56.08 54.47 53.74 53.16 54.15 54.63 55.36 56.22 55.95 55.49 54.67 52.38 53.64 45.40 38.46 39.21 38.54 38.03 44.15 54.51 55.65 55.51 55.51 54.75 54.30 53.94 53.49 52.75 51.64 51.61 50.99 50.29 49.67 49.17 48.87
MSLP
1024.86 1024.96 1025.06 1025.12 1025.09 1025.08 1024.91 1024.79 1024.74 1024.65 1024.43 1024.11 1023.67 1023.26 1022.81 1022.36 1021.79 1020.98 1018.50 1017.56 1016.99 1014.94 1012.81 1012.26 1011.67 1011.24 1010.26 1009.55 1008.86 1008.86 1007.88 1008.39 1008.16 1007.98 1007.07 1005.60 1004.54 1003.51 1003.14 1002.68 1002.52 1002.97 1003.66 1003.87 1003.97 1003.54 1002.68 1002.06 1001.89 1002.72 1003.71 1004.09 1003.87 1004.47
1024.33 1024.49 1024.61 1024.74 1024.78 1024.86 1024.76 1024.55 1024.58 1024.55 1024.39 1024.14 1023.81 1023.39 1023.02 1022.54 1022.05 1021.36 1018.54 1016.91 1016.96 1016.29 1013.72 1013.42 1012.84 1012.54 1012.17 1011.90 1011.50 1010.07 1009.17 1008.89 1008.11 1007.71 1007.04 1006.16 1005.16 1004.08 1003.40 1002.77 1002.81 1002.83 1002.99 1003.35 1003.56 1003.34 1003.10 1002.97 1003.67 1004.34 1004.16 1004.24 1004.62 1005.09
1023.71 1023.94 1024.14 1024.34 1024.45 1024.56 1024.59 1024.46 1024.43 1024.39 1024.26 1024.06 1023.84 1023.49 1023.12 1022.76 1022.45 1022.20 1020.25 1018.41 1016.82 1015.27 1013.55 1012.20 1011.63 1011.81 1012.10 1012.08 1011.95 1011.72 1010.28 1010.52 1009.83 1009.76 1008.67 1006.85 1005.35 1004.54 1004.00 1003.72 1003.42 1003.04 1003.29 1003.91 1003.93 1003.42 1003.62 1004.11 1004.56 1005.16 1005.28 1005.61 1005.80 1005.74
1023.12 1023.42 1023.67 1023.90 1024.09 1024.25 1024.35 1024.31 1024.24 1024.15 1024.05 1023.87 1023.68 1023.44 1023.14 1022.83 1022.52 1022.25 1020.49 1018.60 1017.48 1015.98 1013.51 1011.26 1011.34 1011.76 1011.84 1011.86 1011.94 1012.07 1011.99 1011.96 1011.21 1010.42 1009.28 1007.77 1006.25 1005.24 1004.67 1005.73 1005.07 1004.54 1004.37 1004.67 1004.53 1004.55 1005.15 1004.47 1005.13 1005.51 1006.39 1006.76 1006.69 1006.54
1022.62 1022.92 1023.22 1023.47 1023.74 1023.93 1024.03 1024.05 1024.01 1023.94 1023.84 1023.68 1023.48 1023.26 1023.01 1022.71 1022.35 1021.74 1020.07 1018.42 1017.41 1017.31 1014.64 1012.49 1011.17 1011.14 1011.68 1011.91 1012.00 1012.05 1012.21 1012.30 1011.20 1010.19 1009.35 1008.28 1007.41 1006.70 1006.15 1005.99 1005.28 1005.59 1006.82 1006.80 1006.46 1006.42 1005.97 1006.40 1004.23 1005.58 1006.16 1006.96 1006.95 1007.12
1022.12 1022.49 1022.80 1023.05 1023.33 1023.57 1023.69 1023.76 1023.72 1023.71 1023.62 1023.49 1023.32 1023.09 1022.83 1022.58 1022.23 1020.75 1018.01 1017.19 1017.53 1017.18 1016.05 1012.37 1011.03 1011.06 1011.40 1011.73 1011.91 1012.01 1012.17 1012.23 1011.63 1010.36 1009.08 1008.01 1007.64 1007.86 1007.09 1006.37 1006.17 1006.51 1007.14 1007.86 1008.26 1007.93 1007.59 1006.64 1006.31 1006.66 1006.64 1007.00 1007.38 1007.31
1021.62 1022.01 1022.34 1022.63 1022.96 1023.23 1023.35 1023.43 1023.49 1023.48 1023.40 1023.27 1023.11 1022.90 1022.61 1022.42 1022.10 1020.31 1020.03 1019.27 1019.59 1018.72 1016.31 1012.92 1010.41 1010.61 1010.79 1011.46 1011.48 1011.54 1011.82 1011.44 1011.17 1010.45 1009.69 1008.61 1007.83 1008.12 1007.91 1007.20 1007.26 1007.68 1008.19 1008.14 1008.11 1008.19 1007.56 1007.67 1007.30 1007.08 1007.17 1007.47 1007.54 1007.06
1021.03 1021.44 1021.86 1022.24 1022.58 1022.87 1023.02 1023.14 1023.24 1023.24 1023.13 1023.02 1022.84 1022.58 1022.18 1021.87 1021.53 1020.42 1018.90 1019.62 1019.71 1018.15 1016.02 1012.88 1010.74 1010.58 1010.63 1010.21 1010.48 1010.42 1010.51 1010.68 1010.50 1010.05 1009.50 1008.76 1008.15 1008.22 1007.74 1007.54 1007.63 1008.29 1008.93 1008.76 1008.97 1008.55 1008.26 1008.10 1008.32 1008.70 1008.62 1007.60 1007.35 1007.06
1020.35 1020.82 1021.33 1021.80 1022.18 1022.49 1022.70 1022.84 1022.97 1022.99 1022.91 1022.79 1022.56 1022.17 1021.42 1020.64 1019.23 1018.71 1019.32 1019.42 1018.86 1018.29 1015.53 1012.08 1011.24 1011.16 1010.16 1010.50 1011.13 1010.99 1009.96 1009.98 1009.35 1008.97 1008.64 1008.24 1007.60 1007.38 1007.49 1007.84 1007.78 1008.20 1008.77 1008.70 1008.76 1008.91 1008.70 1008.46 1008.47 1008.78 1009.73 1008.19 1007.81 1007.75
1019.63 1020.22 1020.77 1021.32 1021.77 1022.11 1022.40 1022.57 1022.71 1022.70 1022.66 1022.59 1022.21 1020.68 1019.60 1018.77 1019.04 1019.24 1019.36 1018.39 1017.99 1016.46 1015.26 1012.75 1010.58 1010.83 1009.52 1010.12 1011.71 1011.49 1010.18 1010.49 1009.90 1008.89 1008.15 1007.90 1007.44 1007.28 1007.27 1007.38 1007.81 1008.41 1009.11 1009.31 1009.32 1009.33 1009.13 1009.09 1008.94 1009.17 1009.59 1009.61 1007.64 1007.86
1018.85 1019.62 1020.29 1020.89 1021.36 1021.77 1022.06 1022.29 1022.42 1022.46 1022.20 1021.41 1020.13 1019.19 1018.24 1018.85 1018.66 1017.80 1017.64 1016.94 1015.63 1013.98 1012.80 1011.38 1010.23 1009.29 1009.87 1010.03 1011.55 1011.45 1011.13 1010.57 1010.05 1008.57 1008.80 1008.04 1007.70 1007.57 1007.66 1007.90 1008.52 1009.04 1009.38 1009.57 1009.58 1009.60 1009.43 1009.48 1009.29 1009.45 1009.84 1010.52 1008.36 1009.12
1018.16 1019.07 1019.88 1020.49 1020.98 1021.44 1021.75 1022.00 1022.18 1022.12 1020.43 1021.07 1020.81 1019.18 1018.08 1017.74 1017.36 1017.20 1016.00 1014.47 1013.29 1011.54 1010.97 1010.24 1009.89 1009.56 1009.76 1010.13 1011.06 1012.42 1011.03 1010.12 1008.81 1008.96 1009.83 1008.24 1009.30 1009.87 1009.32 1009.56 1009.96 1010.03 1010.07 1010.31 1010.03 1009.71 1009.57 1009.33 1009.07 1009.05 1009.23 1009.29 1009.42 1009.90
1017.47 1018.62 1019.48 1020.12 1020.68 1021.15 1021.50 1021.76 1021.89 1021.83 1021.21 1019.56 1019.68 1018.23 1016.54 1016.50 1016.25 1015.10 1013.54 1012.55 1011.37 1011.30 1011.26 1010.85 1010.55 1010.28 1010.32 1010.61 1011.02 1010.57 1010.10 1009.17 1008.08 1008.46 1008.44 1009.38 1010.38 1010.58 1010.82 1011.16 1011.14 1011.39 1011.51 1011.28 1010.98 1010.43 1009.67 1009.39 1009.19 1008.84 1008.64 1008.39 1008.21 1009.34
1017.42 1018.46 1019.28 1019.93 1020.52 1020.94 1021.33 1021.67 1021.78 1021.66 1021.25 1018.81 1017.37 1017.09 1015.76 1014.40 1013.18 1012.05 1011.86 1011.39 1011.12 1011.64 1011.71 1011.51 1011.56 1011.67 1011.41 1011.24 1010.69 1010.62 1009.70 1009.32 1009.01 1008.88 1009.73 1011.23 1011.46 1011.69 1011.98 1012.20 1012.25 1012.00 1011.72 1011.65 1011.34 1011.20 1010.66 1009.72 1009.56 1009.25 1008.95 1008.51 1008.34 1008.40
1017.48 1018.50 1019.29 1020.00 1020.43 1020.84 1021.30 1021.57 1021.65 1021.14 1019.70 1017.58 1015.51 1014.92 1013.73 1012.62 1011.80 1012.20 1011.54 1011.57 1011.30 1011.76 1011.80 1011.71 1011.44 1011.34 1011.17 1011.49 1011.04 1010.69 1010.08 1009.91 1010.15 1010.61 1011.50 1012.16 1012.26 1012.51 1012.76 1012.85 1012.74 1012.77 1012.47 1012.20 1011.82 1011.46 1010.99 1010.51 1009.65 1009.33 1008.77 1008.74 1008.37 1008.85
1018.06 1018.90 1019.11 1019.78 1020.45 1020.93 1021.22 1021.30 1020.85 1019.94 1017.90 1016.45 1014.83 1013.59 1012.86 1012.21 1011.93 1011.64 1011.74 1012.37 1012.07 1012.16 1011.66 1011.95 1012.19 1011.87 1011.44 1011.45 1010.80 1010.43 1010.17 1010.62 1011.35 1011.81 1012.12 1012.48 1012.92 1013.22 1013.45 1013.40 1013.23 1012.93 1012.64 1012.47 1012.39 1011.95 1011.40 1010.79 1010.06 1009.27 1008.86 1008.87 1009.55 1009.41
1017.91 1017.65 1019.03 1019.82 1020.42 1020.86 1021.07 1020.61 1019.29 1018.25 1016.95 1015.60 1013.91 1013.01 1012.52 1012.31 1012.36 1012.81 1012.50 1013.23 1012.59 1012.23 1012.07 1012.16 1012.09 1011.73 1011.39 1011.16 1010.88 1010.50 1011.40 1012.04 1012.39 1012.62 1012.95 1013.79 1014.05 1014.09 1014.11 1014.00 1013.56 1012.98 1012.35 1012.04 1011.90 1011.45 1011.16 1011.05 1010.91 1010.44 1010.44 1009.67 1010.25 1010.37
1017.67 1018.39 1019.24 1019.94 1020.32 1020.46 1020.03 1020.06 1018.27 1016.90 1015.85 1014.49 1013.76 1012.99 1012.62 1013.38 1013.32 1013.18 1012.93 1012.98 1012.80 1012.59 1012.65 1012.51 1012.65 1012.07 1011.90 1011.46 1011.51 1011.92 1012.18 1012.40 1012.85 1013.53 1013.77 1014.18 1014.44 1014.36 1014.19 1013.76 1013.31 1012.62 1012.16 1011.96 1011.87 1011.70 1011.64 1011.10 1010.73 1011.86 1011.83 1011.64 1010.69 1011.64
1017.69 1018.74 1019.55 1019.88 1019.94 1019.58 1018.30 1017.71 1017.02 1015.91 1014.41 1013.69 1013.38 1013.43 1013.41 1013.63 1013.53 1013.50 1013.48 1013.61 1013.39 1013.38 1013.51 1013.16 1012.89 1012.53 1012.45 1012.65 1012.78 1012.67 1013.08 1013.48 1013.87 1014.27 1014.59 1014.70 1014.73 1014.52 1014.01 1013.40 1012.84 1012.63 1012.52 1012.43 1012.24 1012.19 1012.09 1012.14 1012.41 1012.76 1012.70 1012.48 1012.57 1013.31
1019.00 1019.59 1020.01 1020.29 1020.43 1018.89 1016.64 1015.97 1016.06 1015.33 1014.16 1013.63 1013.82 1014.14 1013.42 1013.77 1013.50 1014.20 1014.06 1013.94 1013.98 1013.80 1014.06 1014.01 1013.34 1013.69 1013.97 1014.11 1014.11 1014.08 1014.26 1014.65 1015.09 1015.05 1014.97 1014.94 1014.87 1014.50 1014.09 1013.49 1013.24 1013.14 1013.14 1013.04 1013.02 1013.07 1012.98 1012.80 1012.94 1013.23 1013.40 1013.53 1013.60 1013.94
1019.04 1019.58 1020.04 1019.98 1018.80 1018.10 1016.73 1014.99 1014.50 1014.69 1014.48 1014.13 1013.55 1013.50 1013.41 1013.69 1013.77 1014.20 1014.89 1015.20 1015.06 1014.97 1014.69 1014.56 1014.53 1014.64 1015.09 1015.41 1015.25 1015.38 1015.67 1015.75 1015.57 1015.55 1015.50 1015.28 1015.09 1014.85 1014.58 1014.37 1014.17 1014.10 1014.05 1014.13 1014.14 1014.14 1014.03 1014.10 1014.25 1014.37 1014.42 1014.53 1014.86 1015.34
1018.74 1019.38 1018.64 1018.93 1017.72 1016.48 1015.88 1014.68 1014.49 1014.47 1014.10 1014.28 1014.24 1014.10 1014.22 1014.67 1015.53 1016.78 1017.00 1016.52 1016.01 1015.71 1015.89 1015.67 1015.60 1015.84 1016.03 1016.24 1016.33 1016.28 1016.16 1016.03 1015.92 1015.63 1015.62 1015.44 1015.34 1015.17 1014.98 1014.90 1014.71 1014.80 1014.86 1014.83 1014.91 1015.04 1015.09 1015.21 1015.20 1015.29 1015.45 1015.82 1016.11 1016.30
1019.03 1018.61 1017.77 1017.01 1016.76 1016.57 1016.07 1014.66 1015.32 1014.95 1014.82 1014.99 1014.71 1015.28 1016.14 1016.86 1018.14 1018.48 1018.05 1017.89 1017.68 1017.26 1017.11 1017.09 1016.94 1016.80 1016.72 1016.62 1016.52 1016.47 1016.36 1016.25 1016.15 1016.00 1015.79 1015.54 1015.41 1015.27 1015.19 1015.03 1015.17 1015.32 1015.45 1015.68 1015.77 1015.73 1015.89 1016.02 1016.03 1015.97 1016.16 1016.35 1016.61 1017.07
1018.51 1017.68 1016.81 1016.25 1016.33 1016.18 1015.20 1015.55 1015.70 1015.90 1016.09 1016.29 1016.61 1017.18 1017.95 1018.63 1019.08 1018.95 1018.63 1018.25 1017.74 1017.39 1017.16 1016.96 1016.92 1016.78 1016.79 1016.74 1016.69 1016.60 1016.54 1016.44 1016.30 1016.10 1015.95 1015.67 1015.25 1015.32 1014.99 1014.80 1015.11 1015.53 1015.61 1015.86 1016.20 1016.41 1016.62 1016.57 1016.51 1016.32 1016.44 1016.55 1016.79 1017.00
1018.56 1018.33 1017.68 1017.37 1016.61 1016.36 1016.18 1016.34 1017.00 1017.62 1017.57 1017.68 1017.84 1018.18 1018.68 1019.22 1019.28 1019.07 1018.69 1018.21 1017.76 1017.32 1016.92 1016.83 1016.78 1016.75 1016.78 1016.81 1016.82 1016.70 1016.66 1016.47 1016.23 1016.11 1016.18 1015.89 1015.67 1015.42 1015.52 1015.53 1015.69 1015.93 1016.11 1016.31 1016.49 1016.39 1016.15 1016.02 1015.52 1015.34 1015.33 1015.29 1015.56 1015.87
1018.70 1018.28 1018.05 1017.65 1017.37 1017.38 1017.46 1017.84 1018.09 1018.07 1017.93 1017.93 1017.95 1018.17 1018.57 1018.76 1018.95 1018.82 1018.48 1018.16 1017.84 1017.37 1017.02 1016.91 1016.83 1016.80 1016.78 1016.69 1016.73 1016.72 1016.53 1016.31 1016.03 1015.72 1015.80 1015.76 1015.31 1014.86 1015.14 1015.57 1015.76 1015.93 1015.74 1015.59 1015.50 1015.82 1015.61 1015.13 1015.12 1015.29 1015.50 1015.71 1015.76 1015.70
1018.98 1018.45 1018.41 1018.25 1018.31 1018.37 1018.35 1018.38 1018.28 1017.92 1017.36 1017.24 1017.20 1017.32 1017.67 1018.18 1018.39 1018.44 1018.21 1018.00 1017.73 1017.46 1017.24 1017.06 1016.85 1016.68 1016.47 1016.26 1016.26 1015.84 1015.68 1015.81 1015.29 1014.84 1014.43 1014.90 1014.76 1014.83 1014.72 1014.66 1014.81 1014.61 1014.55 1015.20 1014.95 1015.13 1015.43 1015.49 1015.19 1015.45 1015.55 1015.50 1015.65 1015.78
1019.31 1019.10 1018.77 1018.65 1018.49 1018.29 1017.72 1017.20 1016.87 1016.53 1016.20 1016.14 1015.98 1015.89 1016.62 1017.41 1017.79 1017.86 1017.78 1017.78 1017.66 1017.47 1017.30 1017.00 1016.62 1016.24 1015.84 1015.63 1015.25 1014.85 1014.51 1014.53 1014.54 1014.27 1013.94 1014.21 1014.49 1014.74 1014.97 1015.30 1015.68 1015.55 1015.71 1015.90 1015.20 1015.13 1015.18 1015.28 1015.39 1015.50 1015.63 1015.82 1016.11 1016.26
1018.84 1018.50 1018.36 1017.79 1017.42 1017.01 1016.23 1015.58 1014.75 1014.42 1014.07 1014.10 1014.25 1015.20 1016.09 1016.60 1016.93 1017.10 1017.42 1017.39 1017.32 1017.08 1016.68 1016.10 1015.81 1015.28 1014.82 1014.45 1014.41 1014.13 1013.94 1013.81 1013.82 1013.78 1013.88 1014.05 1014.35 1014.79 1015.01 1015.24 1015.47 1015.53 1015.78 1016.26 1016.53 1016.46 1016.52 1016.52 1016.40 1016.00 1016.06 1016.30 1016.70 1016.98
1017.01 1017.28 1017.04 1016.20 1015.24 1014.32 1013.92 1013.75 1013.69 1013.40 1013.39 1013.61 1013.86 1014.32 1014.79 1015.49 1015.88 1015.93 1016.48 1016.65 1016.58 1015.97 1015.31 1014.66 1014.44 1014.00 1013.39 1013.02 1013.20 1013.32 1013.29 1013.31 1013.46 1013.65 1013.84 1014.03 1014.19 1014.47 1014.73 1014.85 1015.00 1015.27 1015.61 1015.88 1016.16 1016.62 1016.91 1016.80 1016.82 1016.68 1016.68 1016.54 1016.59 1016.79
1015.23 1015.10 1014.83 1014.12 1013.71 1013.34 1013.21 1013.26 1013.26 1013.27 1013.36 1013.66 1014.10 1014.20 1014.38 1014.44 1014.42 1014.39 1014.40 1014.68 1014.84 1014.69 1014.50 1013.93 1013.56 1013.32 1013.30 1013.46 1013.60 1013.49 1013.85 1014.34 1014.82 1014.88 1014.74 1014.40 1014.71 1015.11 1015.36 1015.48 1015.41 1015.48 1015.71 1015.76 1015.71 1015.69 1016.10 1016.19 1016.15 1016.41 1016.56 1016.84 1017.26 1017.50
1014.32 1013.89 1013.64 1013.38 1013.23 1013.07 1013.01 1012.92 1012.88 1012.98 1013.24 1013.16 1013.03 1013.14 1013.18 1013.22 1013.48 1013.69 1013.67 1013.41 1013.21 1013.20 1013.71 1013.28 1013.06 1013.01 1013.22 1013.58 1013.98 1014.37 1014.53 1014.99 1015.35 1016.00 1016.16 1015.67 1015.83 1015.98 1015.84 1015.65 1015.75 1016.08 1016.03 1016.01 1016.04 1015.96 1016.36 1016.61 1016.51 1016.69 1016.90 1017.37 1017.68 1017.94
1014.08 1013.90 1013.13 1012.81 1012.78 1012.77 1012.42 1012.31 1012.25 1012.27 1012.23 1012.33 1012.17 1012.22 1012.38 1012.42 1012.83 1013.17 1013.15 1012.97 1012.88 1012.90 1013.16 1013.00 1013.20 1013.78 1014.30 1014.10 1014.62 1015.35 1016.09 1016.81 1017.13 1017.29 1017.53 1017.72 1017.81 1017.69 1016.93 1016.57 1016.78 1016.70 1016.54 1016.47 1016.40 1016.52 1016.84 1017.12 1017.15 1017.46 1017.68 1017.85 1018.04 1018.24
Wind_Speed
13 12 11 9 10 9 8 9 8 10 11 13 13 15 17 18 19 14 7 3 5 7 12 9 10 10 11 8 10 11 3 4 5 8 9 8 8 10 14 14 10 14 11 12 11 14 20 14 18 5 6 6 10 13
14 14 12 10 9 9 9 10 6 8 10 11 14 13 15 16 19 17 6 7 6 6 9 13 11 12 11 10 8 8 9 4 5 7 8 8 11 10 9 9 14 5 8 9 9 9 3 13 12 7 7 10 9 9
14 14 13 11 9 9 7 4 7 8 9 11 12 13 13 15 15 12 8 8 9 8 11 12 9 10 8 10 8 5 6 10 5 8 7 6 7 8 5 9 9 3 1 4 4 4 8 9 10 13 13 9 6 6
14 14 13 11 10 9 8 7 8 9 9 10 12 12 14 14 14 13 8 9 7 7 7 8 5 4 5 7 8 10 8 9 9 8 7 9 9 10 6 7 11 5 6 6 6 5 10 10 10 9 9 6 4 6
14 13 11 12 11 10 10 9 9 9 9 10 11 13 14 15 15 12 9 8 4 6 7 8 5 6 7 5 7 9 7 6 7 7 8 9 11 8 7 6 8 5 4 5 2 9 6 5 12 5 7 7 4 7
14 13 13 13 12 11 10 10 8 8 9 10 11 13 14 15 15 8 5 4 9 5 6 4 5 7 6 5 7 9 8 6 6 8 7 8 4 3 5 8 9 10 8 11 5 5 12 3 7 5 6 6 3 6
15 15 13 13 12 11 10 8 7 8 9 10 12 13 15 14 8 6 4 6 10 8 5 6 4 7 8 8 7 7 8 6 6 7 9 10 4 4 5 13 4 9 11 11 6 6 8 10 4 3 3 3 5 6
16 15 15 14 13 11 10 8 8 8 9 10 12 14 16 16 11 7 3 9 5 6 5 6 4 6 10 6 6 7 8 8 7 7 9 10 6 4 7 10 9 5 0 4 9 9 8 6 3 7 16 6 6 8
17 16 16 15 13 12 11 9 8 9 9 11 13 17 6 5 3 2 6 5 5 5 7 6 5 5 9 2 3 4 4 4 4 6 9 8 8 8 8 11 11 2 4 4 3 8 12 11 14 9 16 12 8 10
21 17 17 15 14 13 11 9 9 9 9 11 8 5 4 2 7 6 3 4 3 6 6 7 7 3 9 7 3 5 2 6 3 7 5 8 10 11 9 9 8 6 3 4 6 9 10 12 5 10 11 22 6 7
21 20 17 16 15 13 11 10 9 8 11 6 5 3 5 8 5 3 3 4 6 6 7 7 9 3 5 6 5 3 3 2 3 4 5 4 6 2 8 10 6 3 2 5 7 10 12 6 12 3 3 17 7 5
22 20 18 16 15 14 12 11 8 5 5 7 5 6 5 6 4 3 5 5 7 4 2 6 3 4 2 2 2 2 7 6 6 7 4 5 3 11 9 9 8 8 9 12 12 10 12 13 14 5 7 10 3 5
23 21 19 15 15 14 12 10 8 9 14 7 5 4 3 3 1 6 9 6 4 2 1 4 1 4 0 2 3 4 3 7 5 3 4 5 6 6 6 6 7 8 9 11 14 17 14 13 14 13 11 7 10 11
21 20 17 16 15 13 11 9 6 7 6 5 5 2 5 6 7 5 5 3 5 3 3 3 3 2 4 2 2 4 4 3 4 5 4 4 5 7 5 8 10 11 11 11 12 11 16 16 11 13 13 13 10 6
23 18 17 15 14 13 11 8 5 6 5 5 5 4 8 9 2 5 1 3 4 5 4 2 3 2 1 2 4 3 3 3 1 3 3 3 3 4 5 9 10 11 11 11 12 12 11 15 13 10 12 8 12 3
20 15 10 17 15 13 10 7 6 6 4 4 5 5 5 5 3 5 7 2 2 1 4 4 2 2 4 3 4 5 4 3 4 5 7 7 6 7 9 11 12 12 11 10 9 13 12 15 17 15 14 9 12 13
19 5 19 18 14 10 7 5 6 5 4 5 5 7 3 3 2 3 3 2 4 2 1 0 3 3 3 3 4 4 3 3 5 6 6 9 10 10 9 9 9 11 11 10 10 12 12 12 15 14 4 16 2 18
5 16 20 16 12 8 5 5 5 4 6 8 4 6 2 6 1 1 8 4 3 2 2 2 3 3 3 4 2 3 5 5 5 7 9 8 9 8 6 8 10 11 9 7 7 7 7 3 11 5 6 5 13 16
13 12 16 15 7 4 6 6 4 4 8 2 2 1 3 4 0 4 3 3 2 1 2 3 4 4 3 2 7 8 7 7 7 7 6 5 6 7 8 8 5 2 0 0 5 5 6 9 7 6 5 6 8 7
16 12 10 7 4 5 4 3 4 5 3 2 1 4 4 4 1 5 3 6 6 3 2 2 3 3 4 5 6 8 7 8 6 5 4 3 3 5 6 5 2 6 6 6 5 6 7 7 7 7 7 8 8 9
11 6 6 5 6 7 5 4 5 2 4 2 2 1 1 4 1 7 6 6 3 2 3 3 2 2 7 8 7 6 5 4 3 2 2 2 3 3 4 5 7 6 6 5 5 6 8 7 6 7 8 9 9 9
6 14 4 7 5 3 4 3 2 4 1 2 2 2 1 2 5 6 6 3 2 1 3 5 6 7 6 4 3 4 3 2 1 1 2 1 2 3 4 4 5 6 5 5 5 6 6 5 6 7 9 9 8 8
5 4 4 4 2 1 6 1 3 4 2 2 3 2 3 4 3 4 2 1 3 3 3 4 5 4 3 4 1 2 2 2 1 2 3 2 1 3 4 6 6 6 7 7 7 7 7 7 7 9 9 8 9 8
2 5 4 4 7 4 2 1 1 3 4 3 3 1 2 2 2 1 2 2 3 3 2 3 3 1 2 2 1 3 2 2 2 2 3 2 6 4 6 8 9 7 8 9 8 8 7 6 6 8 9 10 10 9
1 4 2 4 3 3 1 3 4 2 1 1 1 0 1 1 1 1 2 2 2 3 1 3 3 3 3 3 4 3 1 2 3 2 1 2 4 6 6 4 5 6 7 7 5 7 7 6 6 10 11 10 11 12
2 2 1 2 2 1 1 2 1 2 2 2 3 2 4 2 0 2 2 3 2 2 3 4 5 5 4 3 4 1 2 2 2 4 0 2 2 7 9 8 4 3 3 6 10 9 6 5 9 10 9 9 6 9
2 1 2 3 2 3 1 1 1 2 3 3 2 3 3 2 2 1 2 2 2 2 2 2 2 4 5 4 3 2 4 7 5 3 7 9 9 7 5 5 8 4 7 11 8 11 9 7 6 8 7 6 6 6
2 1 2 2 2 3 3 4 4 4 3 4 3 2 3 1 1 1 0 1 0 1 2 3 4 4 3 4 5 4 4 6 7 7 7 8 8 7 7 7 7 12 10 12 3 6 6 6 5 6 6 6 5 6
3 3 4 4 4 4 5 4 3 3 2 4 2 4 3 1 3 3 3 3 3 4 3 3 5 6 5 6 5 6 6 6 5 9 9 8 8 7 8 8 6 5 5 7 10 10 11 10 11 8 7 6 5 2
5 4 3 5 4 2 4 4 4 4 6 8 7 9 8 8 8 9 9 8 7 7 7 5 6 9 6 4 6 7 5 5 4 5 6 6 7 7 5 5 5 6 5 5 6 5 3 3 3 4 3 3 4 3
5 7 4 8 10 10 11 10 9 9 9 10 9 9 8 5 6 8 11 11 10 10 10 10 8 3 5 5 4 4 6 6 6 7 9 5 7 7 5 2 2 3 3 4 3 2 5 5 1 2 2 3 5 4
4 6 7 10 9 9 9 8 9 8 10 9 9 8 8 7 7 4 4 4 5 5 3 2 3 5 7 7 6 8 11 8 8 11 15 9 8 6 3 1 5 5 4 2 2 1 3 3 3 3 3 1 1 3
5 1 3 6 8 6 5 5 4 5 6 5 4 5 4 3 5 3 4 6 3 3 5 3 6 8 5 7 10 9 11 9 11 11 12 13 12 12 10 9 6 3 1 3 4 4 1 2 3 3 3 3 3 3
Wind_Direction
245 244 254 268 280 284 293 302 317 329 333 335 340 346 347 349 349 344 317 8 318 310 308 359 333 321 328 326 288 4 176 139 258 228 257 252 259 255 241 263 233 203 211 228 246 254 258 290 288 257 99 56 54 61
245 238 243 256 269 276 290 295 296 317 324 328 337 345 342 346 346 341 279 2 347 271 319 315 296 286 294 315 333 313 316 333 338 259 221 250 254 266 271 251 237 243 206 233 222 246 16 70 74 66 51 72 47 73
238 229 234 247 252 263 283 279 291 302 315 322 323 330 336 340 341 343 309 315 305 260 262 233 242 209 235 248 280 294 342 348 321 357 323 287 268 279 274 262 309 266 173 209 268 260 122 115 94 59 35 60 72 65
227 229 229 238 243 247 258 271 284 299 299 312 317 320 325 329 330 323 297 316 294 304 273 138 112 218 207 254 236 243 283 324 296 279 282 287 298 345 262 138 283 7 319 326 259 141 176 107 85 81 95 75 93 81
224 225 226 232 232 242 251 269 275 292 291 304 311 314 319 321 322 301 267 265 270 309 325 321 289 148 181 204 241 221 230 282 283 256 249 260 271 288 297 314 276 83 65 312 61 14 23 243 102 76 102 95 92 116
217 219 229 231 227 237 253 264 272 281 288 296 305 309 313 317 325 284 196 160 11 328 282 284 56 178 176 187 208 201 205 230 255 278 275 244 240 305 273 270 289 92 94 96 355 20 323 72 67 43 63 105 137 118
220 221 226 227 221 232 241 251 265 273 287 292 299 304 306 308 299 293 352 345 335 303 253 249 179 156 167 170 191 188 204 242 236 249 256 280 272 199 246 259 42 33 19 20 31 338 287 26 31 54 139 165 210 156
222 217 218 220 218 227 236 240 257 269 282 292 299 301 300 300 275 250 288 209 281 260 269 273 177 195 186 196 182 205 195 198 228 236 250 240 236 227 248 242 255 177 151 299 10 335 321 315 100 10 338 220 208 164
218 215 209 213 219 223 229 236 250 266 281 293 300 297 279 222 231 58 129 200 230 289 306 266 111 247 179 101 76 309 213 245 266 228 223 251 243 215 221 240 255 102 22 320 349 328 318 303 339 146 187 279 278 132
207 211 200 204 216 215 223 230 245 265 279 294 273 210 237 160 117 156 183 182 216 217 229 259 282 150 256 151 59 307 231 182 266 248 263 258 242 248 246 229 209 117 128 323 308 293 293 328 347 9 5 338 239 149
199 198 197 199 205 206 218 220 240 276 252 214 224 215 77 132 225 190 236 218 215 218 207 241 276 17 327 214 143 282 291 204 239 224 206 232 229 279 313 114 116 89 322 302 288 282 291 296 295 151 145 259 17 97
191 187 188 194 200 201 204 213 233 241 10 328 302 268 220 193 209 216 237 208 233 242 261 229 288 236 108 46 103 105 222 208 235 135 165 214 91 25 46 58 42 16 2 341 306 269 283 285 281 228 218 275 169 95
173 176 179 186 184 190 192 212 238 292 292 239 215 247 209 151 249 227 198 198 201 80 191 302 332 357 190 46 263 247 299 230 311 192 235 79 110 91 59 11 8 346 335 334 332 328 293 264 275 276 265 246 255 161
162 166 170 172 177 182 185 206 234 263 258 238 208 288 222 215 226 206 217 331 59 122 253 251 125 8 288 245 254 255 260 292 278 250 60 96 56 55 31 1 335 320 303 300 297 308 314 300 297 299 287 286 268 280
153 158 160 165 172 174 183 199 222 237 266 250 224 217 212 248 289 154 294 16 168 123 240 202 220 255 15 239 254 303 258 228 280 17 106 132 32 25 344 332 321 310 299 292 288 291 294 296 283 273 271 275 262 209
142 135 169 151 165 169 178 197 208 237 237 246 259 257 286 234 196 225 133 69 318 138 224 91 335 283 214 235 252 245 277 25 27 10 32 26 21 350 326 313 308 299 279 270 260 262 264 272 276 272 267 297 223 238
172 146 147 151 155 166 191 245 206 232 275 268 235 244 264 312 28 16 86 55 330 290 189 255 226 223 261 228 255 354 45 46 19 352 25 30 338 325 310 293 290 289 265 261 253 259 272 276 276 279 327 336 73 102
83 131 140 146 164 165 186 216 255 233 235 242 260 261 15 72 355 255 49 29 20 24 323 341 342 257 264 286 37 40 19 359 23 13 351 352 331 322 300 291 288 279 284 291 278 268 261 290 75 11 125 137 88 98
122 137 155 172 219 290 190 211 236 255 236 275 283 177 282 40 281 141 134 238 220 132 317 282 272 264 258 41 354 356 2 8 350 353 345 338 320 311 304 294 275 285 251 102 69 59 61 75 80 70 59 70 78 84
103 127 157 170 222 261 241 180 197 249 312 323 295 190 185 163 41 70 33 16 12 321 177 268 282 28 13 24 358 340 345 2 345 329 329 331 332 323 341 353 74 70 58 47 59 72 64 54 52 65 72 76 81 78
170 143 172 211 207 230 230 246 206 120 240 277 225 318 135 190 356 36 35 359 299 250 248 306 336 49 32 355 346 2 357 317 307 299 317 320 347 20 34 36 44 59 66 54 65 60 62 68 71 78 76 75 79 90
104 168 225 191 262 213 266 237 346 291 294 138 222 256 39 26 30 31 335 307 275 287 9 337 350 335 337 350 347 318 293 25 15 317 288 315 63 70 66 57 66 68 65 61 74 82 74 69 79 92 101 102 101 104
180 204 230 217 272 102 259 349 16 306 8 338 14 29 21 35 36 325 276 257 280 304 324 304 291 279 263 290 111 69 58 75 21 36 60 71 74 109 111 108 87 81 68 64 69 73 74 69 74 100 103 99 102 108
167 270 275 212 179 242 123 134 73 346 3 18 15 359 54 13 360 327 283 262 261 290 245 235 231 176 108 87 72 92 72 49 72 36 1 103 106 76 95 115 112 101 95 104 101 98 103 115 131 130 134 139 150 157
193 295 152 295 276 302 109 93 45 56 275 326 330 269 173 143 304 276 259 275 293 300 88 123 106 96 107 88 89 92 102 149 153 134 341 341 92 88 76 65 80 111 121 117 126 136 142 163 184 174 171 141 126 128
257 236 149 321 250 43 54 169 191 219 221 205 223 192 177 190 23 311 307 316 316 305 51 85 112 104 86 71 115 119 279 266 186 116 238 212 113 112 128 141 144 183 203 155 149 161 182 179 108 97 99 88 71 116
243 87 43 20 42 56 97 224 268 258 236 215 204 205 157 76 23 319 306 308 334 12 3 13 58 117 146 175 150 213 211 196 192 131 144 190 187 166 130 71 56 82 138 174 177 161 170 188 132 129 152 148 127 122
235 206 214 171 207 199 240 193 200 202 204 210 223 176 83 99 69 215 87 260 333 254 228 235 229 198 183 159 148 148 101 128 163 189 98 77 65 65 84 87 68 62 68 34 34 115 120 118 115 100 93 89 77 50
217 195 210 204 215 216 222 231 184 186 219 195 132 93 99 166 170 172 173 201 213 235 229 200 159 184 180 187 181 162 166 141 118 114 129 124 125 131 141 140 150 123 114 95 57 54 45 39 27 28 56 75 72 60
182 156 215 239 241 169 117 119 134 139 105 100 112 128 135 151 178 171 159 183 199 217 216 193 184 209 200 152 137 162 159 74 107 114 116 118 115 106 104 102 114 118 118 132 126 116 53 222 128 183 218 212 181 165
158 197 183 127 119 117 113 117 118 115 105 96 95 107 118 150 184 203 167 179 187 196 198 207 198 140 116 120 148 157 90 68 55 37 6 98 91 74 77 115 152 109 63 12 339 117 129 234 72 44 130 17 49 332
115 122 117 115 117 128 140 155 161 153 157 169 150 152 156 123 119 143 187 205 188 154 45 245 154 81 85 102 89 67 66 79 56 43 23 33 56 38 9 66 69 37 7 36 330 71 114 309 345 22 41 179 343 342
72 17 157 122 126 143 127 88 71 81 93 94 103 109 126 130 102 126 206 231 207 138 193 183 102 82 51 68 89 92 80 82 84 72 68 58 44 18 7 34 36 2 16 357 18 62 116 23 326 21 344 339 335 324